ECHO 2 DEB (METAL OBJ), 743

Orbit data source: Space-Track

ECHO 2 DEB (METAL OBJ), 743 is space debris in LEO originally from a launch on Sat, 25 Jan 1964 UTC launched from the Air Force Western Test Range (AFWTR). Debris objects in space refer to the collection of defunct objects orbiting the Earth. Examples of debris include non-operational satellites, rocket bodies, and fragments generated from explosions, collisions, or faulty payload assembly.

Loading next visibility...
Identifier
743, 1964-004D
Orbit
LEO
Country
Flag of USUS
Related business
Manufacturer
Grummann
Mission
Spacecraft
Bus & Motor
ECHO CANISTER, Unknown motor
Mass
35 kg wet, 35 kg dry
Launch date (UTC)
1964-01-25 (62 years ago)
Launch vehicle
Unknown
Launch site
Air Force Western Test Range (AFWTR)
Object type
Payload
Rocket body
Debris
Shape & HBR
Unknown
Radar Cross Section
1.000 m², Medium (>0.1 m² and < 1m²)

Expand to show TLE details & history
Last TLE update: 15 hours ago

TLE from 15 hours ago
0 ECHO 2 DEB (METAL OBJ)
1 00743U 64004D   25242.23381694  .00000125  00000-0  23853-3 0  9991
2 00743  81.5207  43.3860 0173719 355.9841 177.6430 13.26823586979542
Epoch: 2025-08-30T05:36Z
TLE epoch observation values (Epoch: 2025-08-30T05:36:41.783Z)
Latitude
6.14899°
Longitude
159.62517°
Altitude
1,291.822 km
Speed
7.148 km/s
True Right ascension
14h 49m 52s
True Declination
6° 06' 54"
Sunlit
Object was in daylight at epoch
Visualization orbit readout
Latitude
Unknown
Longitude
Unknown
Altitude
Unknown
Speed
Unknown
Apparent Right ascension
Unknown
Apparent Declination
Unknown
Sunlit
N/A
Visualization observer readout
Local Sidereal Time
12:25:01
Azimuth
Unknown
Elevation
Unknown
Doppler factor
Unknown
Orbital elements
Apogee altitude
1,286.924 km
Perigee altitude
1,025.158 km
Semi-major axis
7,534.178 km
Eccentricity
0.01737
Inclination
81.5207°
RAAN
43.386°
Arg. of periapsis
355.9841°
True anomaly
177.72313°
Mean anomaly
177.643°
Eccentric anomaly
177.68324°
Mean motion
3.31886 °/min
Orbital period
108.47 mins
BSTAR
0.00023853
Loading maneuver chart data...
Computing Atmospheric mass density...
Loading historical data...
Loading historical data...
Loading historical data...
Loading historical data...
Loading historical data...
Loading historical data...
Loading historical data...

Documentation

Showing up to 5 results
|